Lawrence, MA

7:58 PM EDT on March 26, 2017 (GMT -0400)
Lawrence Municipal

Weather History for KLWM - January, 2013

Change the Weather History Date:

Thursday, January 3, 2013

  Actual Average Record
Temperature  
Mean Temperature 15 °F -  
Max Temperature 25 °F 36 °F 68 °F (2000)
Min Temperature 5 °F 19 °F 1 °F (2014)
Degree Days  
Heating Degree Days 50    
Moisture  
Dew Point -4 °F    
Average Humidity 45    
Maximum Humidity 59    
Minimum Humidity 27    
Precipitation  
Precipitation 0.00 in - - ()
Sea Level Pressure  
Sea Level Pressure 30.09 in    
Wind  
Wind Speed 7 mph (WNW)    
Max Wind Speed 10 mph    
Max Gust Speed 18 mph    
Visibility 10 miles    
Events      
Averages and records for this station are not official NWS values.
T = Trace of Precipitation, MM = Missing Value Source: NWS Daily Summary

Daily Weather History Graph

Daily Weather History Graph

Search for Another Location

Airport or City:

Trip Planner

Search our weather history database for the weather conditions in past years. The results will help you decide how hot, cold, wet, or windy it might be!

Date:

Astronomy

Jan. 03, 2013 Rise Set
Actual Time 7:15 AM EST 4:23 PM EST
Civil Twilight 6:43 AM EST 4:55 PM EST
Nautical Twilight 6:07 AM EST 5:30 PM EST
Astronomical Twilight 5:33 AM EST 6:05 PM EST
Moon 11:05 PM EST (1/3) 10:15 AM EST (1/3)
Length of Visible Light 10h 12m
Length of Day
9h 08m
Waning Gibbous, 65% of the Moon is Illuminated
Jan 3
Waning Gibbous
Jan 4
Last Quarter
Jan 11
New
Jan 18
First Quarter
Jan 26
Full

Hourly Weather History & Observations

Time (EST) Temp. Windchill Dew Point Humidity Pressure Visibility Wind Dir Wind Speed Gust Speed Precip Events Conditions
12:54 AM 7.0 °F -5.7 °F -9.0 °F 48% 30.14 in 10.0 mi WNW 8.1 mph 18.4 mph N/A   Clear
1:54 AM 7.0 °F -7.5 °F -9.0 °F 48% 30.15 in 10.0 mi WNW 10.4 mph - N/A   Clear
2:54 AM 6.1 °F -7.8 °F -9.0 °F 50% 30.15 in 10.0 mi WNW 9.2 mph - N/A   Clear
3:54 AM 6.1 °F -4.3 °F -9.0 °F 50% 30.14 in 10.0 mi West 5.8 mph - N/A   Clear
4:54 AM 5.0 °F -5.6 °F -9.0 °F 52% 30.14 in 10.0 mi West 5.8 mph - N/A   Clear
5:54 AM 5.0 °F -4.1 °F -8.0 °F 55% 30.14 in 10.0 mi WNW 4.6 mph - N/A   Clear
6:54 AM 5.0 °F -4.1 °F -9.0 °F 52% 30.14 in 10.0 mi West 4.6 mph - N/A   Clear
7:54 AM 5.0 °F -5.6 °F -7.1 °F 58% 30.14 in 10.0 mi NW 5.8 mph - N/A   Clear
8:54 AM 9.0 °F -3.2 °F -7.1 °F 48% 30.14 in 10.0 mi WNW 8.1 mph 16.1 mph N/A   Clear
9:54 AM 12.0 °F -0.4 °F -5.1 °F 46% 30.14 in 10.0 mi West 9.2 mph - N/A   Clear
10:54 AM 15.1 °F 3.3 °F -4.0 °F 43% 30.12 in 10.0 mi WNW 9.2 mph - N/A   Clear
11:55 AM 18.0 °F 7.7 °F -2.9 °F 40% 30.10 in 10.0 mi WNW 8.1 mph - N/A   Unknown
12:54 PM 21.9 °F 11.7 °F -2.0 °F 35% 30.06 in 10.0 mi West 9.2 mph - N/A   Clear
1:54 PM 24.1 °F 16.0 °F -4.0 °F 29% 30.04 in 10.0 mi NW 6.9 mph - N/A   Clear
2:54 PM 25.0 °F 15.5 °F -5.1 °F 27% 30.04 in 10.0 mi NW 9.2 mph - N/A   Clear
3:54 PM 23.0 °F 15.8 °F -6.0 °F 28% 30.04 in 10.0 mi WNW 5.8 mph - N/A   Clear
4:54 PM 21.9 °F 15.7 °F -6.0 °F 29% 30.04 in 10.0 mi WNW 4.6 mph - N/A   Mostly Cloudy
5:54 PM 19.9 °F - -4.0 °F 35% 30.05 in 10.0 mi Calm Calm - N/A   Clear
6:54 PM 18.0 °F - -2.0 °F 41% 30.06 in 10.0 mi Calm Calm - N/A   Mostly Cloudy
7:54 PM 19.0 °F - 3.0 °F 50% 30.06 in 10.0 mi Calm Calm - N/A   Overcast
8:54 PM 19.0 °F - 1.9 °F 47% 30.06 in 10.0 mi Calm Calm - N/A   Mostly Cloudy
9:54 PM 19.0 °F 13.9 °F 3.0 °F 50% 30.04 in 10.0 mi SSW 3.5 mph - 0.00 in   Partly Cloudy
10:54 PM 19.0 °F 11.1 °F 3.9 °F 52% 30.03 in 10.0 mi SSW 5.8 mph - N/A   Partly Cloudy
11:54 PM 17.1 °F 6.6 °F 5.0 °F 59% 30.00 in 10.0 mi SSW 8.1 mph - N/A   Partly Cloudy